Location: Sungai Ketit
(2.6833°N, 113.2333°E)
Time: 20:05:08
(UTC+00:00)

Cosmos 1602 - Pass Details

Date: 23 May 2024
Orbit: 470 x 485 km, 82.5° (Epoch: 19 June)

Event Time Altitude Azimuth Distance (km) Brightness Sun altitude
Rises 11:24:13 0° 12° (NNE) 2,495 7.3 -13.1°
Reaches altitude 10° 11:26:28 10° 24° (NNE) 1,622 6.2 -13.6°
Maximum altitude 11:29:35 30° 86° (E) 876 4.3 -14.3°
Enters shadow 11:30:18 27° 109° (ESE) 931 4.4 -14.5°
